TimeEST,TemperatureF,Dew PointF,Humidity,Sea Level PressureIn,VisibilityMPH,Wind Direction,Wind SpeedMPH,Gust SpeedMPH,PrecipitationIn,Events,Conditions,WindDirDegrees,DateUTC
12:15 AM,30.2,19.4,64,29.88,10.0,WSW,16.1,25.3,N/A,,Overcast,250,2013-01-17 05:15:00
12:35 AM,30.2,19.4,64,29.88,10.0,WSW,20.7,24.2,N/A,,Overcast,250,2013-01-17 05:35:00
12:55 AM,30.2,19.4,64,29.89,10.0,WSW,19.6,29.9,N/A,,Overcast,250,2013-01-17 05:55:00
1:15 AM,28.4,19.4,69,29.91,10.0,West,23.0,29.9,N/A,,Overcast,260,2013-01-17 06:15:00
1:35 AM,28.4,21.2,74,29.91,8.0,WSW,17.3,25.3,N/A,,Overcast,250,2013-01-17 06:35:00
1:55 AM,28.4,21.2,74,29.91,8.0,WSW,16.1,-,N/A,,Overcast,250,2013-01-17 06:55:00
2:15 AM,28.4,23.0,80,29.92,8.0,WSW,15.0,-,N/A,,Overcast,240,2013-01-17 07:15:00
2:35 AM,28.4,23.0,80,29.93,4.0,WSW,16.1,20.7,N/A,,Overcast,250,2013-01-17 07:35:00
2:55 AM,28.4,24.8,86,29.94,2.5,WSW,15.0,-,N/A,,Overcast,250,2013-01-17 07:55:00
3:15 AM,28.4,24.8,86,29.94,3.0,West,16.1,19.6,N/A,,Overcast,260,2013-01-17 08:15:00
3:35 AM,28.4,24.8,86,29.95,5.0,West,16.1,21.9,N/A,,Overcast,260,2013-01-17 08:35:00
3:55 AM,28.4,26.6,93,29.94,4.0,West,12.7,20.7,N/A,,Overcast,270,2013-01-17 08:55:00
4:15 AM,28.4,24.8,86,29.95,8.0,West,16.1,-,N/A,,Overcast,260,2013-01-17 09:15:00
4:35 AM,28.4,24.8,86,29.95,8.0,West,12.7,-,N/A,,Overcast,260,2013-01-17 09:35:00
4:55 AM,28.4,24.8,86,29.96,8.0,West,10.4,-,N/A,,Overcast,260,2013-01-17 09:55:00
5:15 AM,28.4,26.6,93,29.96,10.0,West,12.7,-,N/A,,Overcast,270,2013-01-17 10:15:00
5:35 AM,28.4,24.8,86,29.96,10.0,West,8.1,16.1,N/A,,Overcast,270,2013-01-17 10:35:00
5:55 AM,30.2,24.8,80,29.97,10.0,West,9.2,-,N/A,,Overcast,270,2013-01-17 10:55:00
6:15 AM,30.2,24.8,80,29.97,10.0,West,5.8,-,N/A,,Overcast,270,2013-01-17 11:15:00
6:35 AM,30.2,24.8,80,29.98,10.0,West,6.9,-,N/A,,Overcast,280,2013-01-17 11:35:00
6:55 AM,30.2,24.8,80,29.99,10.0,West,6.9,-,N/A,,Overcast,260,2013-01-17 11:55:00
7:15 AM,30.2,24.8,80,30.00,10.0,West,8.1,-,N/A,,Overcast,270,2013-01-17 12:15:00
7:35 AM,30.2,24.8,80,30.01,10.0,West,8.1,-,N/A,,Overcast,270,2013-01-17 12:35:00
7:55 AM,30.2,24.8,80,30.02,10.0,West,6.9,-,N/A,,Overcast,270,2013-01-17 12:55:00
8:15 AM,30.2,24.8,80,30.03,10.0,WNW,11.5,17.3,N/A,,Overcast,300,2013-01-17 13:15:00
8:35 AM,28.4,24.8,86,30.04,10.0,NW,9.2,-,N/A,,Overcast,310,2013-01-17 13:35:00
8:55 AM,28.4,21.2,74,30.05,10.0,WNW,5.8,-,N/A,,Overcast,300,2013-01-17 13:55:00
9:15 AM,28.4,21.2,74,30.06,10.0,NW,10.4,-,N/A,,Overcast,310,2013-01-17 14:15:00
9:35 AM,28.4,24.8,86,30.07,10.0,NNW,8.1,-,N/A,,Overcast,330,2013-01-17 14:35:00
9:55 AM,28.4,23.0,80,30.08,10.0,NNW,8.1,-,N/A,,Overcast,330,2013-01-17 14:55:00
10:15 AM,28.4,23.0,80,30.09,10.0,NW,8.1,-,N/A,,Overcast,320,2013-01-17 15:15:00
10:35 AM,28.4,24.8,86,30.08,10.0,NW,8.1,-,N/A,,Overcast,310,2013-01-17 15:35:00
10:55 AM,28.4,21.2,74,30.08,10.0,NW,3.5,-,N/A,,Overcast,310,2013-01-17 15:55:00
11:15 AM,28.4,21.2,74,30.08,10.0,West,5.8,-,N/A,,Overcast,280,2013-01-17 16:15:00
11:35 AM,28.4,23.0,80,30.07,10.0,West,8.1,-,N/A,,Overcast,280,2013-01-17 16:35:00
11:55 AM,28.4,21.2,74,30.06,10.0,West,6.9,-,N/A,,Overcast,270,2013-01-17 16:55:00
12:15 PM,28.4,21.2,74,30.06,10.0,WNW,8.1,-,N/A,,Overcast,290,2013-01-17 17:15:00
12:35 PM,28.4,21.2,74,30.04,10.0,West,8.1,-,N/A,,Overcast,280,2013-01-17 17:35:00
12:55 PM,28.4,21.2,74,30.04,10.0,West,9.2,-,N/A,,Overcast,280,2013-01-17 17:55:00
1:15 PM,28.4,21.2,74,30.03,10.0,WNW,8.1,-,N/A,,Overcast,300,2013-01-17 18:15:00
1:35 PM,28.4,23.0,80,30.02,10.0,WNW,9.2,-,N/A,,Mostly Cloudy,300,2013-01-17 18:35:00
1:55 PM,28.4,21.2,74,30.02,10.0,NW,12.7,17.3,N/A,,Overcast,310,2013-01-17 18:55:00
2:15 PM,28.4,21.2,74,30.02,10.0,WNW,12.7,-,N/A,,Overcast,300,2013-01-17 19:15:00
2:35 PM,28.4,19.4,69,30.01,10.0,North,10.4,21.9,N/A,,Overcast,360,2013-01-17 19:35:00
2:55 PM,26.6,21.2,80,30.02,10.0,North,6.9,-,N/A,,Overcast,350,2013-01-17 19:55:00
3:15 PM,26.6,21.2,80,30.02,10.0,NNW,6.9,-,N/A,,Overcast,330,2013-01-17 20:15:00
3:35 PM,26.6,21.2,80,30.03,10.0,NNW,8.1,-,N/A,,Overcast,340,2013-01-17 20:35:00
3:55 PM,26.6,19.4,74,30.03,8.0,NNW,3.5,-,N/A,,Overcast,340,2013-01-17 20:55:00
4:15 PM,26.6,19.4,74,30.04,10.0,North,3.5,-,N/A,,Overcast,360,2013-01-17 21:15:00
4:35 PM,26.6,19.4,74,30.04,10.0,WNW,5.8,-,N/A,,Overcast,290,2013-01-17 21:35:00
4:55 PM,26.6,19.4,74,30.05,5.0,NW,3.5,-,N/A,,Overcast,320,2013-01-17 21:55:00
5:15 PM,24.8,17.6,74,30.05,10.0,West,4.6,-,N/A,,Overcast,280,2013-01-17 22:15:00
5:35 PM,24.8,19.4,80,30.05,5.0,WNW,5.8,-,N/A,,Overcast,290,2013-01-17 22:35:00
5:55 PM,24.8,19.4,80,30.06,5.0,WNW,6.9,-,N/A,,Overcast,290,2013-01-17 22:55:00
6:15 PM,24.8,19.4,80,30.06,5.0,Calm,Calm,-,N/A,,Overcast,0,2013-01-17 23:15:00
6:35 PM,24.8,19.4,80,30.06,10.0,Calm,Calm,-,N/A,,Overcast,0,2013-01-17 23:35:00
6:55 PM,24.8,19.4,80,30.07,9.0,Calm,Calm,-,N/A,,Overcast,0,2013-01-17 23:55:00
7:15 PM,24.8,19.4,80,30.07,8.0,Calm,Calm,-,N/A,,Overcast,0,2013-01-18 00:15:00
7:35 PM,24.8,19.4,80,30.08,2.5,WSW,5.8,-,N/A,,Overcast,240,2013-01-18 00:35:00
7:55 PM,24.8,21.2,86,30.07,7.0,West,6.9,-,N/A,,Mostly Cloudy,280,2013-01-18 00:55:00
8:15 PM,24.8,19.4,80,30.06,10.0,WSW,3.5,-,N/A,,Partly Cloudy,250,2013-01-18 01:15:00
8:35 PM,23.0,19.4,86,30.07,10.0,SW,4.6,-,N/A,,Mostly Cloudy,230,2013-01-18 01:35:00
8:55 PM,24.8,19.4,80,30.06,10.0,WSW,4.6,-,N/A,,Overcast,250,2013-01-18 01:55:00
9:15 PM,24.8,19.4,80,30.04,1.8,West,8.1,-,N/A,,Overcast,280,2013-01-18 02:15:00
9:55 PM,23.0,17.6,80,30.06,8.0,WNW,16.1,-,N/A,,Mostly Cloudy,300,2013-01-18 02:55:00
10:15 PM,23.0,17.6,80,30.04,9.0,WNW,15.0,25.3,N/A,,Overcast,300,2013-01-18 03:15:00
10:35 PM,21.2,17.6,86,30.05,1.8,NW,16.1,27.6,N/A,,Overcast,320,2013-01-18 03:35:00
10:55 PM,21.2,17.6,86,30.06,2.5,NW,15.0,24.2,N/A,,Overcast,320,2013-01-18 03:55:00
11:15 PM,19.4,15.8,86,30.06,1.2,NW,19.6,25.3,N/A,,Overcast,320,2013-01-18 04:15:00
11:35 PM,19.4,15.8,86,30.07,4.0,NNW,15.0,19.6,N/A,,Overcast,330,2013-01-18 04:35:00
11:55 PM,19.4,15.8,86,30.07,2.5,NNW,13.8,-,N/A,,Overcast,330,2013-01-18 04:55:00